DateTimeUTC,F1_A11,F1_S11,BsB_S11,BsG_S11,BsR_S11,BbsB_S11,BbsG_S11,BbsR_S11,BaB_A11,BaG_A11,BaR_A11,Tu_S11,T_S11,Uu_S11,U_S11,P_S11,T1_A11
2021-10-30T11:00:00Z,00000200,21000000,,,,,,,-000.24,-000.15,-000.17,18.2,25.1,,00.0,0647.2,31.1
2021-10-30T11:01:00Z,00000200,21000000,,,,,,,-000.22,-000.74,-000.04,18.2,25.1,,00.0,0647.2,31.1
2021-10-30T11:02:00Z,00000200,21000000,,,,,,,0000.03,0000.08,-000.34,18.2,25.2,,00.0,0647.2,31.1
2021-10-30T11:03:00Z,00000200,61000000,,,,,,,-000.61,-000.14,0000.16,18.2,25.2,,00.0,0647.2,31.0
2021-10-30T11:04:00Z,00000200,41000000,0000.36,0000.06,0000.18,-000.27,0000.02,-000.14,0000.19,0000.27,-000.03,18.2,25.0,,00.0,0648.0,31.0
2021-10-30T11:05:00Z,00000200,01000000,0000.55,0000.22,0000.38,-000.56,0000.02,-000.01,0000.23,0000.04,0000.02,18.2,24.9,,00.0,0648.1,31.0
2021-10-30T11:06:00Z,00000200,01000000,0000.76,0000.00,0000.04,0000.54,-000.06,-000.06,0000.18,-000.00,-000.05,18.2,24.9,,00.0,0648.1,31.1
2021-10-30T11:07:00Z,00000200,01000000,0000.21,0000.16,0000.32,-000.25,0000.01,0000.13,0000.23,0000.21,0000.04,18.3,24.9,,00.0,0648.1,31.1
2021-10-30T11:08:00Z,00000200,01000000,0000.60,0000.31,0000.34,0000.13,0000.12,0000.23,-000.03,0000.03,0000.12,18.3,24.9,,00.0,0648.1,31.1
2021-10-30T11:09:00Z,00000200,01000000,0001.07,0000.19,0000.19,0000.35,0000.24,0000.08,0000.40,0000.12,0000.25,18.3,24.9,,00.0,0648.1,31.1
2021-10-30T11:10:00Z,00000200,01000000,-000.02,0000.35,-000.10,0000.38,0000.24,-000.02,-000.44,0000.13,-000.24,18.4,24.9,,00.0,0648.1,31.1
2021-10-30T11:11:00Z,00000200,01000000,0000.69,0000.18,0000.01,-000.24,0000.13,0000.15,0000.13,0000.06,0000.13,18.5,25.0,,00.0,0648.2,31.1
2021-10-30T11:12:00Z,00000200,01000000,0000.36,0000.49,0000.26,-000.08,0000.23,0000.05,0000.04,-000.06,-000.00,18.4,25.0,,00.0,0648.2,31.1
2021-10-30T11:13:00Z,00000200,01000000,-000.43,0000.25,0000.04,-000.09,0000.29,-000.23,-000.04,0000.23,0000.08,18.4,25.0,,00.0,0648.1,31.1
2021-10-30T11:14:00Z,00000200,01000000,0000.15,0000.22,0000.38,0000.31,0000.05,0000.24,0000.10,-000.53,0000.06,18.3,24.9,,00.0,0648.2,31.0
2021-10-30T11:15:00Z,00000200,01000000,0000.52,0000.02,0000.58,0000.15,0000.27,0000.08,-000.17,0000.14,-000.21,18.2,24.9,,00.0,0648.2,31.0
2021-10-30T11:16:00Z,00000200,01000000,0000.26,0000.46,0000.28,0000.24,0000.10,-000.03,0000.52,-000.16,-000.20,18.1,24.8,,00.0,0648.2,31.0
2021-10-30T11:17:00Z,00000200,01000000,0000.17,0000.36,0000.54,0000.62,0000.20,-000.02,-000.30,0000.14,0000.34,18.0,24.8,,00.0,0648.2,31.0
2021-10-30T11:18:00Z,00000200,01000000,0000.52,0000.29,0000.09,0000.34,0000.34,-000.08,-000.00,0000.34,-000.23,17.9,24.7,,00.0,0648.2,31.0
2021-10-30T11:19:00Z,00000200,01000000,0000.56,0000.28,0000.09,-000.13,0000.35,-000.09,0000.18,-000.18,0000.07,17.8,24.7,,00.0,0648.3,31.0
2021-10-30T11:20:00Z,00000200,01000000,0000.07,0000.09,0000.32,-000.52,0000.02,-000.26,-000.45,-000.00,-000.19,17.8,24.6,,00.0,0648.3,31.0
2021-10-30T11:21:00Z,00000200,01000000,0000.27,0000.19,0000.12,-000.03,0000.08,0000.14,0000.53,-000.06,0000.43,17.8,24.6,,00.0,0648.3,31.0
2021-10-30T11:22:00Z,00000200,01000000,0000.13,0000.51,0000.29,-000.20,0000.05,-000.05,-000.00,0000.37,-000.43,17.8,24.7,,00.0,0648.3,31.0
2021-10-30T11:23:00Z,00000200,01000000,0000.39,0000.44,-000.04,0000.52,0000.16,-000.07,0000.30,0000.02,0000.11,17.9,24.7,,00.0,0648.3,31.0
2021-10-30T11:24:00Z,00000200,01000000,0000.25,0000.32,0000.18,-000.08,0000.28,0000.31,-000.23,0000.51,0000.16,17.9,24.7,,00.0,0648.3,31.0
2021-10-30T11:25:00Z,00000200,01000000,-000.15,0000.40,0000.25,0000.09,0000.06,-000.10,0000.03,-000.32,0000.34,17.9,24.7,,00.0,0648.3,31.1
2021-10-30T11:26:00Z,00000200,01000000,0000.62,0000.31,-000.03,-000.16,-000.26,-000.20,0000.44,-000.03,-000.13,18.0,24.7,,00.0,0648.3,31.1
2021-10-30T11:27:00Z,00000200,01000000,0000.46,0000.20,0000.23,0001.10,-000.27,-000.14,0000.41,0000.26,0000.01,18.0,24.8,,00.0,0648.3,31.0
2021-10-30T11:28:00Z,00000200,01000000,0000.27,0000.41,0000.01,-000.39,0000.15,-000.03,-000.67,-000.25,0000.21,18.1,24.8,,00.0,0648.3,31.0
2021-10-30T11:29:00Z,00000200,01000000,0000.86,0000.53,0000.06,-000.22,0000.07,-000.13,0000.35,0000.17,-000.20,18.1,24.8,,00.0,0648.3,31.0
2021-10-30T11:30:00Z,00000200,01000000,0000.77,0000.40,0000.09,-000.12,0000.24,0000.04,0000.36,0000.07,0000.12,18.1,24.8,,00.0,0648.3,31.0
2021-10-30T11:31:00Z,00000200,01000000,0000.13,0000.47,0000.10,0000.27,0000.45,0000.05,-000.03,0000.03,0000.31,18.0,24.7,,00.0,0648.4,31.0
2021-10-30T11:32:00Z,00000200,01000000,0000.97,0000.05,0000.12,0000.17,-000.28,0000.17,-000.12,-000.00,-000.04,17.9,24.7,,00.0,0648.3,31.0
2021-10-30T11:33:00Z,00000200,01000000,0007.25,0007.50,0008.04,0002.11,0001.80,0002.68,0018.58,0017.60,0016.38,17.8,24.6,,00.0,0648.1,30.9
2021-10-30T11:34:00Z,00000200,01000000,0005.45,0006.22,0006.78,0001.16,0001.09,0001.26,0029.00,0029.98,0031.68,17.7,24.5,,00.0,0647.1,30.9
2021-10-30T11:35:00Z,00000200,01000000,0001.24,0000.16,0000.62,0000.10,0000.33,0000.15,-000.42,-000.09,-000.24,17.6,24.5,,00.0,0647.1,30.9
2021-10-30T11:36:00Z,00000200,01000000,0001.43,0000.08,0000.27,-000.00,-000.02,0000.20,-000.68,-000.76,-000.54,17.6,24.4,,00.0,0647.0,30.9
2021-10-30T11:37:00Z,00000200,01000000,0001.25,0000.43,0000.24,-000.23,0000.20,0000.32,-000.12,-000.00,-000.07,17.6,24.4,,00.0,0647.0,30.9
2021-10-30T11:38:00Z,00000200,01000000,0000.79,0000.27,0000.42,0000.51,0000.08,0000.03,-000.01,0000.02,0000.05,17.5,24.4,,00.0,0647.0,30.9
2021-10-30T11:39:00Z,00000200,01000000,-000.32,0000.10,0000.19,-000.11,-000.05,0000.01,-000.09,0000.21,0000.03,17.5,24.4,,00.0,0647.0,30.9
2021-10-30T11:40:00Z,00000200,01000000,0000.31,0000.23,-000.13,-000.53,0000.05,0000.35,-000.28,-000.24,-000.27,17.5,24.4,,00.0,0647.0,30.9
2021-10-30T11:41:00Z,00000200,01000000,0000.15,0000.47,0000.18,-000.02,0000.44,-000.18,0000.53,-000.05,0000.41,17.5,24.4,,00.0,0647.0,30.9
2021-10-30T11:42:00Z,00000200,01000000,0000.93,0000.40,-000.06,-000.11,0000.30,0000.02,0000.08,0000.14,-000.29,17.5,24.3,,00.0,0647.0,31.0
2021-10-30T11:43:00Z,00000200,01000000,0001.32,0000.38,0000.19,-000.64,0000.06,0000.06,0000.20,-000.22,0000.23,17.4,24.3,,00.0,0647.0,31.0
2021-10-30T11:44:00Z,00000200,01000000,0000.46,0000.23,-000.15,0000.40,-000.08,-000.03,-000.33,0000.54,-000.03,17.4,24.3,,00.0,0647.0,30.9
2021-10-30T11:45:00Z,00000200,01000000,0000.63,0000.55,0000.15,-000.12,0000.25,-000.13,0000.24,-000.30,-000.02,17.4,24.3,,00.0,0647.0,31.0
2021-10-30T11:46:00Z,00000200,01000000,0000.31,0000.07,0000.51,0000.11,-000.02,0000.20,0000.27,0000.43,0000.85,17.4,24.3,,00.0,0647.0,30.9
2021-10-30T11:47:00Z,00000200,01000000,0000.49,0000.08,0000.09,0000.19,-000.06,0000.25,-000.04,-000.14,-000.42,17.4,24.2,,00.0,0647.0,30.9
2021-10-30T11:48:00Z,00000200,01000000,0000.37,0000.53,0000.05,-000.68,0000.22,0000.17,0000.06,0000.02,-000.04,17.3,24.2,,00.0,0647.0,30.9
2021-10-30T11:49:00Z,00000200,01000000,0000.09,0000.26,0000.16,-000.15,-000.08,-000.10,-000.08,0000.19,-000.06,17.3,24.2,,00.0,0647.0,30.9
2021-10-30T11:50:00Z,00000200,01000000,0000.02,0000.23,0000.08,0000.22,-000.09,0000.02,0000.56,0000.18,0000.18,17.3,24.1,,00.0,0647.1,30.9
2021-10-30T11:51:00Z,00000200,01000000,0000.73,0000.45,0000.40,0000.13,0000.39,-000.12,0000.00,0000.14,0000.34,17.3,24.1,,00.0,0647.0,30.9
2021-10-30T11:52:00Z,00000200,01000000,0000.22,0000.41,0000.33,0000.13,0000.12,0000.17,0000.01,-000.09,-000.20,17.3,24.1,,00.0,0647.0,30.9
2021-10-30T11:53:00Z,00000200,01000000,0001.11,0000.30,0000.43,0000.31,-000.10,0000.06,-000.01,0000.20,0000.21,17.3,24.1,,00.0,0647.1,30.9
2021-10-30T11:54:00Z,00000200,01000000,-000.06,0000.53,0000.22,-000.43,0000.24,0000.28,0000.11,-000.04,0000.14,17.2,24.1,,00.0,0647.0,30.9
2021-10-30T11:55:00Z,00000200,01000000,0001.38,0000.37,0000.12,0000.01,0000.02,-000.14,-000.09,-000.04,-000.23,17.2,24.1,,00.0,0647.0,30.9
2021-10-30T11:56:00Z,00000200,01000000,0000.35,-000.00,0000.27,0000.43,0000.37,0000.16,0000.33,0000.11,0000.05,17.2,24.0,,00.0,0647.1,30.9
2021-10-30T11:57:00Z,00000200,41000000,,,,,,,0001.21,0001.48,0001.22,17.2,24.0,,00.0,0647.1,30.9
2021-10-30T11:58:00Z,00000200,61000000,,,,,,,-000.49,-000.64,-000.57,16.9,24.1,,00.0,0646.1,30.9
2021-10-30T11:59:00Z,00000200,21000000,,,,,,,-000.18,-000.38,-000.13,16.8,24.2,,00.0,0646.1,30.9
